Vertical_Velocity
0 -2 -0 -1 -0 -4 -3 -2 -3 -3 -3 2 -6 -3 7 4 1 -1 1 5 -7 -3 3 3 3 -7 14 1 8 5 21 -8 -8 1 1 -5 0 -8 18 14 5 6 2 -8 0
-3 -2 -1 -1 -3 -3 -3 -2 -0 -0 -1 0 -5 -1 -7 -1 1 2 -5 1 -4 0 -7 1 2 21 -10 21 -10 7 -3 -16 3 -5 1 2 -5 -8 -7 -4 -3 3 -4 3 -0
-2 -1 -2 -2 -3 -3 -2 -2 -3 -2 1 -2 1 -1 -4 -1 1 3 -0 1 -0 1 -4 -1 -3 -6 1 36 -7 -7 -11 1 -1 4 -3 9 -3 -7 -1 -1 -3 2 -8 1 0
-1 -2 -1 -2 -3 -2 -2 -2 -2 -6 -2 2 -2 -0 -0 -1 2 -2 -0 -1 9 3 2 3 4 15 20 -21 8 -0 -4 4 24 -7 -4 -8 5 -2 -2 4 13 -4 0 3 -0
-1 -1 -1 -2 -2 -2 -1 -1 -2 -3 -2 2 -2 -4 0 -4 -4 0 -1 -4 -4 9 -3 3 3 8 -1 14 16 19 -16 8 30 -8 10 4 4 -4 11 -2 -1 -0 1 0 3
-1 -0 -2 -2 -0 -1 -1 -1 -1 -2 -0 -0 -0 -6 -3 -2 -1 0 -0 2 -7 15 -0 -4 -7 4 4 -9 -7 -10 -7 -3 7 3 1 4 2 11 -5 6 -3 -0 1 -2 3
-1 0 -2 -2 1 0 -2 -1 0 -4 3 -2 0 -1 -8 1 -4 3 2 -2 -7 5 -15 4 -1 1 -3 15 24 0 6 -7 8 -4 1 4 17 -7 -5 -1 1 0 2 -4 -0
-1 2 -1 -1 1 -0 -0 -2 1 -3 1 4 3 3 -1 -3 -4 2 2 2 -15 1 -2 -5 -5 1 -5 10 -29 72 10 3 -4 -0 2 -1 -1 13 3 0 -6 3 -1 4 1
-2 2 -1 -0 1 -1 -0 -1 -2 -2 1 4 2 0 2 -0 -6 -3 3 -2 5 -3 -15 9 1 6 1 4 17 31 0 3 5 -0 -6 -2 12 -13 5 3 -10 3 8 2 -2
0 -0 -2 -1 1 1 1 0 0 5 -0 -1 -0 -2 -0 5 4 -2 7 12 0 4 14 28 9 -6 6 -3 -2 -20 -3 19 -10 -8 3 -4 44 -1 1 2 4 1 6 7 4
1 -2 -2 -1 0 1 3 1 -2 -8 -3 4 -0 -1 -2 1 2 2 5 -1 4 15 -10 -8 7 2 -0 5 5 -0 -5 -2 8 8 -2 -10 27 6 -2 2 4 -7 -5 2 7
0 -2 -2 -1 -1 -1 1 3 3 -6 -2 -0 -1 -4 -5 0 -3 9 -4 4 -2 6 -9 -2 6 -6 2 -0 -5 -4 -8 11 24 1 1 -1 6 1 3 3 6 -5 5 -9 2
1 0 1 -0 -3 0 3 -0 -0 1 -1 0 3 1 2 -6 1 0 -2 3 1 -2 25 7 1 -16 -11 -6 5 1 -14 0 -15 -1 13 6 5 -5 -1 1 7 -6 -3 1 1
-0 3 -1 -1 -2 -0 1 -1 -3 1 4 -1 -4 2 -1 -5 2 -6 -8 6 -1 0 0 -1 -29 -12 -1 -3 -9 2 31 -1 -6 -0 -10 -3 1 -1 2 5 -0 -6 -2 -11 5
1 1 0 -2 -1 0 2 2 -3 -2 -4 -7 -2 6 1 -7 -1 0 12 0 14 8 -25 -8 18 5 6 4 -2 -20 38 -8 -9 4 7 3 13 -3 -6 1 -0 -0 -7 3 -8
-0 -1 -1 -1 -1 3 -0 3 -7 -5 1 -1 2 -1 0 -4 -4 -0 4 -3 -1 -2 4 1 2 7 -20 -1 -14 -2 4 -1 6 21 7 -10 3 17 -10 -6 -2 -2 -3 -5 -2
0 0 -2 -1 1 -3 -2 -0 -8 -10 -1 2 -2 3 3 -4 1 4 -0 4 0 -0 -4 3 1 10 -36 19 16 2 10 5 1 -3 -3 -0 6 7 5 -4 -12 -15 -5 -8 -11
-3 1 -1 -1 2 -2 -1 -1 -22 1 0 1 -1 -6 0 1 4 -5 -6 -7 -0 1 2 2 12 8 5 12 -19 -4 -18 -15 -3 -4 -4 4 -7 9 -12 -7 -7 4 10 2 -5
-2 -0 -2 -2 -0 -2 -1 -2 -6 -5 -1 -1 -2 -5 -7 -4 -3 -2 5 -4 3 2 -5 -6 3 -3 -3 -2 -12 -8 6 1 -3 5 6 -10 3 4 -0 -2 3 1 2 -4 -15
0 3 -1 -2 -5 -4 1 -5 -2 -1 -5 -4 -2 1 0 4 1 3 -0 -1 -6 -0 0 -1 -3 5 -1 2 2 -3 6 -5 5 -0 1 2 -2 -15 -14 -6 -1 0 -5 -9 -2
-1 -2 -2 -2 -0 -2 -4 -5 -3 -0 1 -2 -3 -4 -0 6 1 -2 -3 0 -0 -2 -0 4 2 -2 3 -0 -5 0 -3 -6 4 -1 -4 -1 -15 -19 -6 -1 -4 2 1 3 3
-2 -3 -5 0 3 3 -2 -2 -3 -4 -0 -1 -2 -3 0 2 1 4 -3 -4 -2 1 -1 -5 1 -2 -11 -4 3 -1 5 -4 1 2 -2 -1 -0 -12 5 4 2 -1 -1 -1 -6
0 -4 -3 -4 -0 -4 -3 -4 -2 -1 -2 -1 -1 -1 1 -2 -1 1 0 3 3 -1 -2 1 -1 2 4 -2 -2 0 -7 9 15 11 -9 2 -1 -4 3 5 -4 3 3 2 2
-2 -5 -2 1 -3 -2 -1 -1 -3 0 -1 -2 -0 -0 -2 -1 -1 -1 1 0 -1 2 1 -4 -4 -0 -11 -5 -2 -5 -6 -4 -2 7 -7 -16 10 -1 2 2 4 2 4 0 -0
-3 -3 -1 -3 -8 -2 -2 -4 1 -1 -2 1 -1 -0 1 -2 -4 -3 -3 -1 0 -2 3 4 -2 -0 -0 -3 -1 2 2 -2 -5 -7 4 -10 7 9 -4 1 1 7 5 2 4
0 -3 -2 -2 2 -8 -3 -1 -2 -3 0 -2 1 0 1 1 7 1 1 -0 -2 -2 -1 -3 1 2 -6 -2 -3 1 2 -1 -1 -2 -4 3 -12 6 -5 -5 -0 1 0 -0 0
-1 4 -1 2 -6 3 -4 -3 -1 -0 -1 -0 -2 -0 0 -1 -1 0 2 1 1 1 0 -2 -0 4 1 2 4 -1 -18 -5 0 -2 0 -3 -7 -11 -4 -8 -6 -8 0 -2 -4
Height
3045 3037 3029 3023 3017 3012 3008 3005 3003 3001 2997 2996 2995 2994 2993 2993 2993 2993 2995 2997 2998 3003 3006 3012 3019 3031 3038 3043 3050 3061 3066 3069 3075 3083 3092 3099 3105 3110 3114 3115 3120 3121 3125 3126 3130
3042 3033 3026 3020 3014 3010 3005 3002 3001 2998 2995 2993 2992 2991 2990 2989 2989 2989 2990 2991 2993 2997 3002 3007 3015 3023 3030 3033 3044 3049 3055 3061 3077 3086 3090 3095 3102 3105 3112 3114 3118 3120 3122 3126 3128
3038 3030 3023 3017 3012 3007 3003 3002 3000 2997 2993 2992 2990 2988 2986 2986 2987 2986 2984 2984 2985 2990 2998 3002 3010 3018 3024 3027 3037 3045 3052 3067 3075 3083 3089 3091 3099 3104 3110 3113 3117 3119 3121 3125 3128
3036 3028 3022 3016 3010 3006 3002 3001 2998 2996 2993 2992 2989 2987 2982 2983 2987 2984 2983 2983 2983 2986 2993 2997 3006 3012 3019 3024 3035 3045 3054 3066 3075 3078 3086 3088 3097 3101 3109 3115 3117 3116 3119 3123 3126
3034 3026 3020 3015 3009 3005 3003 3000 2999 2996 2994 2992 2990 2987 2986 2985 2985 2983 2982 2981 2981 2983 2989 2994 3000 3008 3015 3017 3031 3042 3053 3064 3069 3075 3083 3090 3094 3100 3107 3110 3113 3115 3118 3122 3125
3032 3024 3019 3014 3009 3005 3002 3000 2998 2997 2994 2991 2991 2988 2987 2987 2984 2983 2981 2979 2979 2978 2984 2990 2997 3006 3014 3023 3032 3041 3052 3059 3066 3072 3081 3087 3092 3100 3102 3107 3111 3114 3116 3120 3123
3031 3023 3018 3014 3009 3005 3002 3000 2998 2996 2995 2992 2990 2989 2987 2988 2984 2982 2980 2978 2978 2979 2985 2991 2998 3003 3005 3016 3023 3040 3049 3057 3064 3071 3079 3086 3092 3097 3100 3105 3109 3112 3115 3119 3121
3031 3023 3018 3013 3009 3005 3003 3000 2998 2996 2995 2993 2991 2989 2987 2986 2984 2982 2981 2979 2979 2980 2987 2992 2998 3005 3007 3017 3022 3024 3043 3051 3062 3069 3076 3083 3088 3095 3097 3103 3108 3110 3115 3118 3120
3031 3023 3018 3013 3009 3005 3003 3001 2998 2997 2995 2993 2991 2988 2988 2986 2983 2983 2982 2981 2980 2984 2987 2987 2998 3004 3010 3016 3019 3019 3031 3048 3061 3067 3073 3082 3088 3089 3095 3100 3105 3110 3113 3116 3119
3032 3024 3018 3014 3009 3006 3004 3002 2999 2998 2994 2991 2990 2991 2988 2988 2984 2983 2981 2981 2983 2986 2987 2988 2996 3004 3011 3019 3021 3027 3036 3048 3056 3065 3072 3079 3086 3088 3094 3099 3104 3108 3112 3116 3119
3033 3025 3018 3014 3010 3007 3004 3002 3002 3000 2995 2990 2988 2987 2987 2987 2985 2984 2982 2983 2983 2986 2990 2993 3000 3005 3010 3018 3024 3033 3041 3049 3059 3064 3071 3079 3083 3086 3092 3097 3100 3106 3111 3115 3118
3035 3026 3021 3015 3012 3008 3004 3004 3002 3002 2998 2993 2991 2989 2989 2986 2986 2986 2986 2987 2989 2989 2996 3002 3008 3014 3018 3020 3025 3038 3042 3052 3061 3064 3073 3080 3083 3086 3090 3096 3101 3105 3109 3115 3118
3038 3029 3023 3018 3014 3010 3006 3005 3003 3002 3001 2998 2995 2993 2992 2990 2988 2987 2989 2990 2993 2995 3002 3002 3012 3019 3023 3025 3029 3035 3042 3049 3055 3064 3074 3079 3082 3085 3089 3094 3097 3102 3108 3112 3117
3041 3034 3027 3021 3020 3014 3009 3006 3003 3003 3003 3008 3000 2998 2996 2994 2993 2991 2993 2995 2995 3000 2999 3011 3019 3020 3022 3027 3032 3037 3046 3053 3059 3065 3070 3075 3080 3085 3087 3091 3095 3100 3106 3111 3114
3042 3037 3030 3022 3022 3017 3015 3010 3007 3006 3008 3014 3006 3003 2999 2998 2999 2998 2997 2998 3000 3005 3013 3018 3015 3020 3019 3028 3039 3042 3046 3054 3061 3066 3071 3076 3080 3080 3085 3087 3092 3097 3103 3109 3114
3043 3038 3033 3028 3025 3020 3017 3013 3014 3012 3018 3020 3014 3012 3009 3004 3005 3004 3003 3002 3005 3010 3017 3019 3021 3022 3026 3032 3037 3045 3051 3058 3066 3068 3072 3072 3076 3077 3077 3083 3090 3095 3099 3105 3110
3046 3040 3036 3031 3029 3024 3021 3018 3018 3019 3025 3027 3022 3018 3016 3014 3012 3009 3008 3007 3010 3019 3021 3022 3025 3029 3031 3038 3042 3048 3053 3060 3068 3072 3073 3073 3077 3078 3077 3082 3086 3091 3095 3101 3107
3049 3043 3039 3035 3031 3029 3025 3023 3024 3029 3026 3028 3026 3023 3019 3018 3018 3018 3016 3014 3016 3018 3021 3024 3032 3034 3036 3043 3041 3047 3050 3056 3062 3067 3067 3072 3071 3074 3077 3077 3081 3087 3092 3097 3101
3050 3046 3040 3037 3034 3031 3029 3024 3030 3032 3030 3028 3028 3029 3026 3024 3023 3022 3023 3023 3023 3023 3026 3030 3033 3032 3035 3038 3047 3050 3051 3056 3059 3062 3065 3068 3070 3071 3073 3076 3079 3083 3087 3090 3095
3051 3047 3042 3039 3036 3034 3032 3026 3030 3031 3031 3030 3027 3025 3027 3027 3027 3027 3026 3028 3028 3027 3028 3031 3035 3037 3039 3042 3046 3047 3053 3056 3056 3061 3061 3060 3064 3066 3068 3072 3075 3078 3083 3088 3092
3053 3047 3044 3040 3038 3036 3032 3030 3031 3031 3031 3032 3030 3027 3024 3024 3026 3026 3028 3029 3028 3028 3028 3030 3034 3038 3040 3040 3044 3046 3047 3050 3054 3056 3056 3055 3058 3062 3065 3068 3070 3074 3078 3082 3086
3054 3050 3046 3042 3041 3036 3035 3033 3032 3031 3030 3030 3030 3030 3028 3026 3023 3023 3025 3026 3028 3028 3029 3031 3032 3035 3039 3040 3040 3040 3046 3048 3047 3049 3051 3051 3051 3053 3060 3063 3065 3068 3072 3077 3081
3055 3051 3047 3043 3040 3037 3036 3035 3034 3032 3031 3030 3029 3029 3028 3028 3028 3024 3024 3026 3027 3029 3030 3031 3033 3038 3041 3041 3038 3039 3041 3042 3046 3047 3046 3049 3049 3051 3052 3055 3058 3062 3067 3071 3075
3054 3051 3047 3044 3040 3038 3036 3034 3033 3032 3030 3028 3027 3026 3026 3025 3025 3026 3026 3026 3027 3029 3030 3032 3032 3033 3032 3032 3036 3037 3038 3040 3043 3043 3044 3042 3047 3048 3049 3051 3052 3055 3059 3064 3068
3053 3050 3046 3043 3040 3037 3036 3034 3032 3030 3029 3028 3026 3025 3025 3024 3024 3023 3024 3025 3026 3027 3028 3029 3029 3030 3029 3030 3032 3033 3036 3037 3039 3042 3041 3041 3044 3045 3046 3047 3047 3051 3055 3059 3063
3051 3048 3043 3040 3037 3036 3034 3032 3030 3028 3028 3026 3025 3023 3022 3022 3022 3021 3021 3022 3022 3024 3025 3026 3027 3026 3028 3028 3029 3029 3029 3031 3032 3034 3034 3038 3037 3040 3041 3043 3044 3046 3049 3052 3055
3046 3043 3041 3038 3036 3034 3031 3028 3027 3026 3026 3024 3023 3022 3021 3020 3018 3017 3017 3018 3019 3020 3020 3023 3023 3025 3023 3023 3024 3023 3018 3021 3023 3023 3025 3027 3029 3033 3035 3038 3041 3043 3044 3046 3049